This is the latest recevied weather packets stored in our database for station/object KA3RQR. If no packets are shown the sender has not sent any weather packets the latest 10 day(s).
| Time | Temp. | Humidity | Pressure | Rain* | Wind** | Luminosity | Snow |
|---|---|---|---|---|---|---|---|
| 1778068626 | 17.22° C | 86% | 1010.9 hPa | 0 mm | - | 9 W/m² | - |
| 1778068324 | 17.22° C | 85% | 1010.7 hPa | 0 mm | - | 9 W/m² | - |
| 1778068021 | 17.22° C | 84% | 1011 hPa | 0 mm | - | 10 W/m² | - |
| 1778067719 | 17.22° C | 84% | 1010.7 hPa | 0 mm | - | 10 W/m² | - |
| 1778067417 | 17.22° C | 83% | 1010.7 hPa | 0 mm | - | 15 W/m² | - |
| 1778067114 | 17.78° C | 81% | 1010.4 hPa | 0 mm | - | 10 W/m² | - |
| 1778066810 | 17.78° C | 80% | 1010.4 hPa | 0 mm | - | 7 W/m² | - |
| 1778066508 | 17.78° C | 80% | 1010.1 hPa | 0 mm | - | 8 W/m² | - |
| 1778066205 | 17.78° C | 80% | 1010.2 hPa | 0 mm | - | 10 W/m² | - |
| 1778065903 | 17.78° C | 79% | 1010 hPa | 0 mm | - | 15 W/m² | - |
| 1778065600 | 17.78° C | 78% | 1009.9 hPa | 0 mm | - | 12 W/m² | - |
| 1778065297 | 17.78° C | 78% | 1009.9 hPa | 0 mm | - | 11 W/m² | - |
| 1778064994 | 17.78° C | 78% | 1010.1 hPa | 0 mm | - | 9 W/m² | - |
| 1778064691 | 17.78° C | 77% | 1010.1 hPa | 0 mm | - | 12 W/m² | - |
| 1778064389 | 17.78° C | 77% | 1009.8 hPa | 0 mm | - | 13 W/m² | - |
| 1778064086 | 17.78° C | 76% | 1009.8 hPa | 0 mm | - | 7 W/m² | - |
| 1778063784 | 18.33° C | 75% | 1009.7 hPa | 0 mm | - | 5 W/m² | - |
| 1778063480 | 18.33° C | 75% | 1009.8 hPa | 0 mm | - | 4 W/m² | - |
| 1778063179 | 18.33° C | 75% | 1009.4 hPa | 0 mm | - | 2 W/m² | - |
| 1778062876 | 18.33° C | 74% | 1009.7 hPa | 0 mm | - | 1 W/m² | - |
| 1778062572 | 18.33° C | 75% | 1009.6 hPa | 0 mm | - | 0 W/m² | - |
| 1778062269 | 18.33° C | 74% | 1009.6 hPa | 0 mm | - | 0 W/m² | - |
| 1778061968 | 18.33° C | 74% | 1009.8 hPa | 0 mm | - | 0 W/m² | - |
| 1778061665 | 18.33° C | 73% | 1009.7 hPa | 0 mm | - | 0 W/m² | - |
| 1778061364 | 18.33° C | 73% | 1009.5 hPa | 0 mm | - | 0 W/m² | - |
* Rain latest hour (hover to see other rain measurements)
** Current wind speed in m/s (hover to see current wind gust speed)